{"data":{"norad_id":64226,"intl_designator":"2025-117Z","name":"STARLINK-34347","alt_names":[],"object_type":"PAYLOAD","status":"ACTIVE","operator":null,"country":"US","launch_date":"2025-05-31","launch_site_code":"AFWTR","launch_vehicle":null,"mission":null,"orbit_class":"UNKNOWN","rcs_meters":null,"size_class":null,"mass_kg":null,"dimensions":null,"purposes":["comms"],"wikipedia_slug":null,"has_3d_model":false,"image_url":null,"decayed_at":null,"tle_current":{"epoch":"2026-05-24T23:24:17.090784Z","epoch_age_seconds":74246,"freshness":"FRESH","line1":"1 64226U 25117Z   26144.97519781  .00031348  00000+0  10648-2 0  9999","line2":"2 64226  53.1609  45.3803 0001137  83.0072 277.1058 15.30237924 56200","mean_motion":15.30237924,"eccentricity":0.0001137,"inclination_deg":53.1609,"raan_deg":45.3803,"arg_perigee_deg":83.0072,"mean_anomaly_deg":277.1058,"bstar":0.0010648,"rev_number":5620,"period_min":94.103013486679,"perigee_km":474.32262427393,"apogee_km":475.88105078558,"semimajor_km":6853.2388375298,"source":"CELESTRAK","updated_at":"2026-05-25T13:38:20.348527Z"}}}